Weather History for KDUH - April, 2013

Change the Weather History Date:

Saturday, April 13, 2013

  Actual Average (KTOL) Record (KTOL)
Temperature  
Mean Temperature 40 °F 48 °F  
Max Temperature 43 °F 59 °F 86 °F (1977)
Min Temperature 38 °F 38 °F 19 °F (1976)
Degree Days  
Heating Degree Days 24 17  
Month to date heating degree days 246  
Since 1 July heating degree days 5672  
Cooling Degree Days 0 0  
Month to date cooling degree days 0  
Year to date cooling degree days 0  
Moisture  
Dew Point 31 °F    
Average Humidity 69    
Maximum Humidity 81    
Minimum Humidity 57    
Precipitation  
Precipitation 0.00 in 0.11 in 1.29 in (1979)
Month to date precipitation 1.37  
Year to date precipitation 7.97  
Snow  
Snow 0.00 in 0.10 in - ()
Month to date snowfall 0.9  
Since 1 July snowfall 37.1  
Snow Depth -    
Sea Level Pressure  
Sea Level Pressure 29.89 in    
Wind  
Wind Speed 10 mph (WSW)    
Max Wind Speed 22 mph    
Max Gust Speed 32 mph    
Visibility 10 miles    
Events Rain    
T = Trace of Precipitation, MM = Missing Value Source: NWS Daily Summary

Daily Weather History Graph

Daily Weather History Graph

Search for Another Location

Airport or City:

Trip Planner

Search our weather history database for the weather conditions in past years. The results will help you decide how hot, cold, wet, or windy it might be!

Date:

Astronomy

Apr. 13, 2013 Rise Set
Actual Time 6:57 AM EDT 8:13 PM EDT
Civil Twilight 6:28 AM EDT 8:42 PM EDT
Nautical Twilight 5:54 AM EDT 9:16 PM EDT
Astronomical Twilight 5:17 AM EDT 9:53 PM EDT
Moon 8:45 AM EDT (4/13) 11:39 PM EDT (4/13)
Length of Visible Light 14h 13m
Length of Day
13h 16m
Waxing Crescent, 10% of the Moon is Illuminated
Apr 13
Waxing Crescent
Apr 18
First Quarter
Apr 25
Full
May 2
Last Quarter
May 9
New

Hourly Weather History & Observations

Time (EDT) Temp. Windchill Dew Point Humidity Pressure Visibility Wind Dir Wind Speed Gust Speed Precip Events Conditions
12:15 AM 41.7 °F 36.7 °F 35.6 °F 79% 29.82 in 10.0 mi WSW 8.1 mph - N/A   Overcast
12:35 AM 41.5 °F 35.0 °F 35.6 °F 79% 29.82 in 10.0 mi WSW 11.5 mph 21.9 mph N/A   Overcast
12:55 AM 41.2 °F 34.5 °F 35.6 °F 81% 29.82 in 10.0 mi WSW 11.5 mph - N/A   Overcast
1:15 AM 41.2 °F 35.0 °F 35.4 °F 80% 29.83 in 10.0 mi WSW 10.4 mph 18.4 mph N/A   Overcast
1:35 AM 41.2 °F 36.0 °F 34.9 °F 78% 29.83 in 10.0 mi WSW 8.1 mph - N/A   Overcast
1:55 AM 41.2 °F 34.1 °F 33.8 °F 75% 29.83 in 10.0 mi WSW 12.7 mph 19.6 mph N/A   Overcast
2:15 AM 41.0 °F 36.4 °F 34.9 °F 79% 29.83 in 10.0 mi WSW 6.9 mph 16.1 mph N/A   Overcast
2:35 AM 41.0 °F 35.8 °F 33.8 °F 76% 29.83 in 10.0 mi WSW 8.1 mph - N/A   Overcast
2:55 AM 40.6 °F 33.8 °F 33.1 °F 74% 29.84 in 10.0 mi West 11.5 mph 16.1 mph N/A   Overcast
3:15 AM 40.6 °F 33.8 °F 31.6 °F 70% 29.84 in 10.0 mi WSW 11.5 mph 24.2 mph N/A   Overcast
3:35 AM 40.3 °F 33.0 °F 32.0 °F 72% 29.84 in 10.0 mi WSW 12.7 mph 23.0 mph N/A   Overcast
3:55 AM 40.1 °F 32.7 °F 30.2 °F 68% 29.85 in 10.0 mi West 12.7 mph 19.6 mph N/A   Overcast
4:15 AM 39.7 °F 32.3 °F 29.5 °F 67% 29.85 in 10.0 mi West 12.7 mph 23.0 mph N/A   Overcast
4:35 AM 39.7 °F 32.7 °F 28.9 °F 65% 29.85 in 10.0 mi West 11.5 mph 19.6 mph N/A   Overcast
4:55 AM 39.6 °F 33.0 °F 27.9 °F 63% 29.85 in 10.0 mi WSW 10.4 mph 16.1 mph N/A   Overcast
5:15 AM 39.2 °F 34.2 °F 28.4 °F 65% 29.85 in 10.0 mi WSW 6.9 mph - N/A   Overcast
5:35 AM 38.8 °F 34.6 °F 29.1 °F 68% 29.85 in 10.0 mi SW 5.8 mph - N/A   Overcast
5:55 AM 38.8 °F 33.8 °F 29.7 °F 70% 29.85 in 10.0 mi WSW 6.9 mph - N/A   Overcast
6:15 AM 38.8 °F 31.6 °F 30.4 °F 72% 29.84 in 10.0 mi WSW 11.5 mph 19.6 mph N/A   Overcast
6:35 AM 39.0 °F 31.8 °F 31.1 °F 73% 29.84 in 10.0 mi SW 11.5 mph - N/A   Overcast
6:55 AM 38.7 °F 32.4 °F 32.0 °F 77% 29.84 in 10.0 mi SW 9.2 mph - N/A   Overcast
7:15 AM 38.7 °F 33.6 °F 32.2 °F 78% 29.84 in 10.0 mi SW 6.9 mph - N/A   Overcast
7:35 AM 38.7 °F 33.6 °F 32.5 °F 79% 29.85 in 10.0 mi SW 6.9 mph - N/A   Overcast
7:55 AM 38.7 °F 32.4 °F 32.9 °F 80% 29.84 in 10.0 mi SW 9.2 mph - N/A   Overcast
8:15 AM 39.2 °F 33.6 °F 33.1 °F 79% 29.85 in 10.0 mi WSW 8.1 mph - N/A   Overcast
8:35 AM 39.7 °F 33.7 °F 33.1 °F 77% 29.85 in 10.0 mi SW 9.2 mph - N/A   Overcast
8:55 AM 40.1 °F 34.1 °F 33.1 °F 76% 29.85 in 10.0 mi WSW 9.2 mph 18.4 mph N/A   Overcast
9:15 AM 40.3 °F 33.0 °F 32.9 °F 75% 29.86 in 10.0 mi West 12.7 mph 19.6 mph N/A   Overcast
9:35 AM 40.5 °F 35.1 °F 32.4 °F 73% 29.86 in 10.0 mi WSW 8.1 mph 11.5 mph N/A   Overcast
9:55 AM 40.8 °F 33.7 °F 32.0 °F 71% 29.85 in 10.0 mi WSW 12.7 mph 20.7 mph N/A   Overcast
10:15 AM 41.5 °F 35.4 °F 32.0 °F 69% 29.85 in 10.0 mi West 10.4 mph 18.4 mph N/A   Overcast
10:35 AM 41.4 °F 34.0 °F 31.8 °F 69% 29.86 in 10.0 mi WSW 13.8 mph 19.6 mph N/A   Overcast
10:55 AM 40.5 °F 34.6 °F 31.8 °F 71% 29.87 in 10.0 mi WSW 9.2 mph 20.7 mph N/A   Overcast
11:15 AM 41.0 °F 34.7 °F 30.6 °F 66% 29.87 in 10.0 mi West 10.4 mph 24.2 mph N/A   Overcast
11:35 AM 42.1 °F 35.7 °F 31.3 °F 66% 29.87 in 10.0 mi WSW 11.5 mph 17.3 mph N/A   Overcast
11:55 AM 42.1 °F 35.7 °F 32.0 °F 67% 29.87 in 10.0 mi WSW 11.5 mph 17.3 mph N/A   Overcast
12:15 PM 43.0 °F 34.5 °F 31.6 °F 64% 29.87 in 10.0 mi West 19.6 mph 27.6 mph N/A   Overcast
12:35 PM 42.8 °F 37.0 °F 32.0 °F 66% 29.87 in 10.0 mi WSW 10.4 mph 17.3 mph N/A   Overcast
12:55 PM 42.8 °F 35.1 °F 32.0 °F 66% 29.87 in 10.0 mi SW 16.1 mph 23.0 mph N/A   Overcast
1:15 PM 40.6 °F 32.0 °F 32.0 °F 71% 29.89 in 10.0 mi West 17.3 mph 26.5 mph N/A Rain Light Rain
1:35 PM 38.7 °F 31.8 °F 32.5 °F 79% 29.90 in 10.0 mi West 10.4 mph 19.6 mph N/A   Overcast
1:55 PM 39.6 °F 34.7 °F 32.7 °F 76% 29.90 in 10.0 mi West 6.9 mph - N/A   Overcast
2:15 PM 40.1 °F 32.7 °F 32.2 °F 73% 29.90 in 10.0 mi West 12.7 mph 19.6 mph N/A   Overcast
2:35 PM 40.6 °F 34.3 °F 32.7 °F 73% 29.89 in 10.0 mi West 10.4 mph 24.2 mph N/A   Overcast
2:55 PM 41.5 °F 33.5 °F 31.6 °F 68% 29.89 in 10.0 mi WSW 16.1 mph 24.2 mph N/A   Overcast
3:15 PM 38.8 °F 30.4 °F 31.8 °F 76% 29.90 in 10.0 mi West 15.0 mph - N/A   Overcast
3:35 PM 39.4 °F 32.3 °F 30.0 °F 69% 29.91 in 10.0 mi West 11.5 mph 19.6 mph N/A   Overcast
3:55 PM 40.6 °F 33.0 °F 30.2 °F 66% 29.91 in 10.0 mi WSW 13.8 mph 21.9 mph N/A   Overcast
4:15 PM 41.2 °F 33.0 °F 28.2 °F 60% 29.91 in 10.0 mi West 16.1 mph 23.0 mph N/A   Overcast
4:35 PM 42.6 °F 34.3 °F 29.5 °F 60% 29.91 in 10.0 mi West 18.4 mph 25.3 mph N/A   Overcast
4:55 PM 43.5 °F 34.7 °F 29.1 °F 57% 29.92 in 10.0 mi West 21.9 mph 32.2 mph N/A   Mostly Cloudy
5:15 PM 42.3 °F 34.4 °F 29.7 °F 61% 29.93 in 10.0 mi West 16.1 mph 23.0 mph N/A   Mostly Cloudy
5:35 PM 42.1 °F 34.9 °F 28.2 °F 58% 29.93 in 10.0 mi West 13.8 mph 24.2 mph N/A   Overcast
5:55 PM 42.1 °F 35.7 °F 29.1 °F 60% 29.94 in 10.0 mi West 11.5 mph 25.3 mph N/A   Overcast
6:15 PM 41.2 °F 33.0 °F 28.0 °F 60% 29.95 in 10.0 mi West 16.1 mph 21.9 mph N/A   Overcast
6:35 PM 41.2 °F 33.7 °F 28.0 °F 60% 29.95 in 10.0 mi West 13.8 mph 19.6 mph N/A   Overcast
6:55 PM 41.4 °F 35.2 °F 28.8 °F 61% 29.95 in 10.0 mi WSW 10.4 mph - N/A   Overcast
7:15 PM 41.2 °F 35.0 °F 28.2 °F 60% 29.96 in 10.0 mi West 10.4 mph 18.4 mph N/A   Overcast
7:35 PM 41.0 °F 36.4 °F 28.9 °F 62% 29.96 in 10.0 mi West 6.9 mph - N/A   Overcast
8:15 PM 40.5 °F 35.8 °F 28.2 °F 62% 29.97 in 10.0 mi WSW 6.9 mph - N/A   Overcast
8:35 PM 40.3 °F 36.3 °F 28.8 °F 63% 29.97 in 10.0 mi WSW 5.8 mph - N/A   Overcast
8:55 PM 40.1 °F 38.0 °F 28.9 °F 64% 29.98 in 10.0 mi WSW 3.5 mph - N/A   Overcast
9:15 PM 40.1 °F 36.1 °F 29.1 °F 65% 29.98 in 10.0 mi SW 5.8 mph - N/A   Overcast
9:35 PM 40.1 °F 36.1 °F 29.3 °F 65% 29.98 in 10.0 mi SW 5.8 mph - N/A   Overcast
9:55 PM 40.1 °F 38.0 °F 29.3 °F 65% 29.99 in 10.0 mi WSW 3.5 mph - N/A   Overcast
10:15 PM 40.1 °F 36.9 °F 29.5 °F 66% 29.99 in 10.0 mi SW 4.6 mph - N/A   Overcast
10:35 PM 40.1 °F 36.9 °F 29.7 °F 66% 30.00 in 10.0 mi SW 4.6 mph - N/A   Overcast
10:55 PM 40.1 °F 36.9 °F 29.3 °F 65% 30.00 in 10.0 mi SW 4.6 mph - N/A   Overcast
11:15 PM 40.1 °F 38.0 °F 29.3 °F 65% 30.00 in 10.0 mi SW 3.5 mph - N/A   Overcast
11:35 PM 40.1 °F - 29.3 °F 65% 30.00 in 10.0 mi Calm Calm - N/A   Overcast
11:55 PM 40.1 °F 38.0 °F 29.5 °F 66% 30.00 in 10.0 mi SSW 3.5 mph - N/A   Overcast